Location: *
(47.6569°N, 7.4256°E)
Time: 14:16:40
(UTC+00:00)

Cosmos 1763 Rocket - Pass Details

Date: 14 December 2019
Orbit: 733 x 780 km, 74.0° (Epoch: 19 January)

Event Time Altitude Azimuth Distance (km) Brightness Sun altitude
Rises 17:40:34 0° 343° (NNW) 3,175 6.8 -19.5°
Reaches altitude 10° 17:43:07 10° 352° (N) 2,252 5.9 -19.9°
Enters shadow 17:46:32 30° 29° (NNE) 1,300 4.3 -20.5°
